Other Public Products
Issued by NWS Grand Forks, ND

Home | Current Version | Previous Version | Text Only | Print | Product List | Glossary Off
Versions: 1 2 3 4 5 6 7 8 9 10 11 12 13 14 15 16 17 18 19 20 21 22 23 24 25 26 27 28 29 30 31 32 33 34 35 36 37 38 39 40 41 42 43 44 45 46 47 48 49 50

000
FPUS83 KFGF 202310
OPUFGF
PRAIRIE TO PINES WEATHER ROUNDUP
NATIONAL WEATHER SERVICE EASTERN NORTH DAKOTA/GRAND FORKS ND
500 PM CST MON FEB 20 2017

 **SATELLITE DATA USED TO AUGMENT SKY COVER AT AUTOMATED STATIONS**
 *****  WEATHER ACROSS EASTERN NORTH DAKOTA  *****

CITY           SKY/WX    TMP DP  RH WIND       PRES   REMARKS
GRAND FORKS    MOCLDY    36  31  82 W7        29.65R
GRAND FORKS AF CLOUDY    36  36 100 W6        29.66R
GRAND CITY NWS NOT AVBL
BUXTON         NOT AVBL
DEVILS LAKE    FOG       33  32  96 W14       29.68R VSB 1/4 WCI  23
FARGO          CLOUDY    39  37  92 W14       29.68R
WAHPETON ARPT  CLOUDY    37  34  87 NW9       29.67S
$$

 *****  WEATHER ACROSS CENTRAL AND WESTERN NORTH DAKOTA  *****

CITY           SKY/WX    TMP DP  RH WIND       PRES   REMARKS
JAMESTOWN      FAIR      42  37  82 W14       29.70R
BISMARCK       FAIR      52  36  54 W10       29.75R
MINOT          FAIR      47  36  65 SW13      29.67S
MINOT AFB      FAIR      40  35  82 W8        29.67R
GARRISON         N/A     45  34  65 NW14      29.70R
WILLISTON      FAIR      46  29  51 NW7       29.68F
DICKINSON      FAIR      52  22  30 W10       29.69F
HETTINGER      FAIR      55  23  28 W13       29.75F
$$

 *****  OTHER OBSERVATIONS NORTHEAST NORTH DAKOTA  *****

CITY           SKY/WX    TMP DP  RH WIND       PRES   REMARKS
WALHALLA       NOT AVBL
LANGDON        NOT AVBL
CAVALIER       FAIR      36  32  87 W8        29.63R
GRAFTON        FAIR      36  36 100 NW10      29.64S
CANDO          NOT AVBL
FORT TOTTEN      N/A     33  33 100 W7        29.95S
ROLLA          FAIR      34  34 100 SW6       29.64R
RUGBY            N/A     32  32 100 W10       29.68S FOG     WCI  24
 ***** THE ABOVE OBSERVATIONS ARE NON NWS ARE NOT QUALITY
        CONTROLLED AND MAY MIS-REPORT RAIN FOR SNOW...
$$

 *****  OTHER OBSERVATIONS SOUTHEAST NORTH DAKOTA *****

CITY           SKY/WX    TMP DP  RH WIND       PRES   REMARKS
COOPERSTOWN    CLOUDY    36  34  93 NW17      29.67R FOG
VALLEY CITY    FAIR      36  36 100 W14       29.71R
OAKES          NOT AVBL
GWINNER        FAIR      43  37  81 W12       29.72R
BUFFALO        NOT AVBL
WYNDMERE       NOT AVBL
 ***** THE ABOVE OBSERVATIONS ARE NON NWS ARE NOT QUALITY
       CONTROLLED AND MAY MIS-REPORT RAIN FOR SNOW...
$$

  *****  WEATHER ACROSS NORTHERN MINNESOTA  *****

CITY           SKY/WX    TMP DP  RH WIND       PRES   REMARKS
FLAG ISLAND    RAIN      36  34  93 SE3       29.51F VSB 1/4
WARROAD        DRIZZLE   37  34  87 W12G18    29.55R
ROSEAU         RAIN      36  30  80 W10       29.58R
HALLOCK        CLOUDY    36  34  93 W6        29.62R
THF RVR FALLS  LGT RAIN  34  34 100 NW12      29.63S FOG
HALSTAD          N/A     37  36  94 NW12        N/A
FOSSTON        DRIZZLE   34  34 100 W15       29.62R WCI  24
BAUDETTE       FOG       41  40  96 S8        29.53R VSB 1/2
WASKISH        DRIZZLE   45  45 100 S6        29.55S
CROOKSTON      MIX PCPN  36  36 100 NW8       29.63F
$$
  *****  WEATHER ACROSS CENTRAL AND WEST MINNESOTA  *****

CITY           SKY/WX    TMP DP  RH WIND       PRES   REMARKS
BEMIDJI        LGT RAIN  44  44 100 SW5       29.56S VSB 1/4
PARK RAPIDS    LGT RAIN  42  40  92 W5        29.56F VSB<1/4
WADENA         DRZL/FOG  46  46 100 SW8       29.57S VSB 1/4
DETROIT LAKES  LGT RAIN  36  36 100 NW16G23   29.65R
MOORHEAD       CLOUDY    37  36  93 NW6       29.67F
FERGUS FALLS   LGT RAIN  37  37 100 NW18      29.69R
ELBOW LAKE     DRIZZLE   38  38 100 NW17G23   29.67R
MORRIS MN      LGT RAIN  39  39 100 NW20      29.65R
STAPLES        DRIZZLE   46  46 100 S7        29.57F
WHEATON        MOCLDY    41  37  87 W14G20    29.70S
$$
  *****  WEATHER ELSEWHERE ACROSS MINNESOTA  *****

CITY           SKY/WX    TMP DP  RH WIND       PRES   REMARKS
DULUTH         LGT RAIN  41  41 100 SE7       29.64F FOG
INTRNTL FALLS  LGT RAIN  43  41  93 S7        29.56F FOG
ELY            LGT RAIN  39  39 100 SE9       29.61F
CLOQUET        RAIN      37  36  93 CALM      29.65S
BRAINERD       LGT RAIN  46  46 100 SE9       29.58F FOG
HIBBING        LGT RAIN  40  40 100 S5        29.62S FOG
ALEXANDRIA     LGT RAIN  42  41  96 NW25G32   29.62R FOG
SAINT CLOUD    FOG       49  49 100 SE8       29.59F VSB 1/2
MINNEAPOLIS    LGT RAIN  53  51  93 S6        29.68F
$$

  *****  WEATHER ACROSS SOUTH DAKOTA  *****

CITY           SKY/WX    TMP DP  RH WIND       PRES   REMARKS
SIOUX FALLS    FAIR      53  45  74 NW14      29.75R
BROOKINGS      FAIR      50  42  74 NW18      29.72R
WATERTOWN      FAIR      45  40  82 NW14      29.71R
HURON          FAIR      55  43  63 NW16      29.76R
SISSETON         N/A     44  40  85 NW16      29.69R
ABERDEEN       FAIR      48  38  68 NW17      29.75R
MITCHELL       FAIR      57  42  57 NW10      29.79R
PIERRE         FAIR      59  30  33 NW15      29.80R
MOBRIDGE       FAIR      54  37  52 NW8       29.77R
RAPID CITY     FAIR      62  19  19 S12       29.80F
$$

  *****  SOME WEATHER IN NEARBY STATES *****

CITY           SKY/WX    TMP DP  RH WIND       PRES   REMARKS
GLASGOW MT     FAIR      52  27  38 SE7       29.62F
GREAT FALLS MT CLOUDY    49  33  54 SW29G36   29.55R
CHEYENNE WY    FAIR      53  17  24 SW24G33   30.00S
SCOTTSBLUFF NE FAIR      63  21  20 W18G24    29.90F
OMAHA NE       PTSUNNY   60  51  72 NW12      29.80R
DES MOINES IA  CLOUDY    62  59  90 S8        29.81R
DAVENPORT IA   CLOUDY    67  53  61 S16       29.85R
CHICAGO IL     CLOUDY    66  47  50 SE15      29.97R
EAU CLAIRE WI  RAIN      52  51  97 S14       29.71F FOG
LA CROSSE WI   LGT RAIN  55  52  89 S12       29.77R FOG
$$

  *****  SOME NATIONAL WEATHER *****

CITY           SKY/WX    TMP DP  RH WIND       PRES   REMARKS
LA GUARDIA NY  FAIR      50  15  24 N16       30.25R
RALEIGH NC     MOCLDY    63  35  35 CALM      30.20R SMOKE
ATLANTA GA     MOCLDY    70  45  40 S6        30.13S
NEW ORLEANS LA CLOUDY    74  67  78 SE14      29.97F
OKLAHOMA CITY  FAIR      65  51  60 SW8       29.87F
ALBUQUERQUE NM FAIR      60  25  26 NW15      30.19R
SALT LAKE CITY PTSUNNY   55  35  47 S25G36    29.96S
LOS ANGELES CA CLOUDY    61  54  77 SE10      30.23S
BOISE ID       CLOUDY    55  39  54 W7        29.79R
SEATTLE WA     LGT RAIN  44  42  93 S6        29.66R
$$

*** WEATHER ACROSS MANITOBA...SASKATCHEWAN AND ONTARIO ***
                ***ONTARIO***

CITY           SKY/WX    TMP DP  RH WIND       PRES   REMARKS
GERALDTON      CLOUDY    41  27  56 S15G22    29.90F
THUNDER BAY    LGT RAIN  36  34  93 E21G28    29.79F
SIOUX LOOKOUT  LGT RAIN  39  39 100 SE9       29.54F FOG
TORONTO        PTCLDY    34  25  69 SE7       30.34R
BIG TROUT LK   LGT RAIN  34  32  93 SE13G21   29.62F WCI  25
PICKLE LAKE    LGT RAIN  36  36 100 SE13      29.63F FOG
DRYDEN         LGT RAIN  39  39 100 S12       29.53F FOG
KENORA         LGT RAIN  41  39  93 S9        29.51F VSB 1/4
$$
                *** MANITOBA***

CITY           SKY/WX    TMP DP  RH WIND       PRES   REMARKS
BRANDON        CLOUDY    34  32  93 W10       29.63R
DAUPHIN        CLEAR     36  32  87 W16       29.61R
ISLAND LAKE    LGT RAIN  36  34  93 E3        29.49F
PILOT MOUND      N/A     34  32  93 W8          N/A
THE PAS        CLOUDY    32  25  74 NW3       29.58S
THOMPSON       LGT SNOW  25  23  93 NE5       29.55F WCI  19
WINNIPEG       CLOUDY    34  32  93 W12       29.60R
LYNN LAKE      CLOUDY    21  21 100 E6        29.57S WCI  14
CHURCHILL      CLOUDY    12   9  85 E20       29.83F WCI  -6
GILLAM         FLURRIES  23  21  93 NE7       29.58F WCI  15
$$
                ***SASKATCHEWAN***

CITY           SKY/WX    TMP DP  RH WIND       PRES   REMARKS
ESTEVAN        MOSUNNY   37  34  87 W8        29.67R
KINDERSLEY     PTSUNNY   37  28  70 S3        29.59R
LLOYDMINSTER   CLOUDY    34  28  80 W6        29.59R
PRINCE ALBERT  CLOUDY    37  32  81 W5        29.59S
REGINA         MOSUNNY   41  34  75 NW5       29.63F
YORKTON        CLOUDY    36  32  87 W8        29.63R
N. BATTLEFORD  CLOUDY    36  32  87 NW6       29.63R


USA.gov is the U.S. government's official web portal to all federal, state and local government web resources and services.